Member area
Imprimable
Houffalize, 03-05/05/2019, BEL - Roc d'Ardenne
List of reports > Rando Roc Night - Result
Search: Page: [1]
93 Entries
 
Complains are not accepted anymore. Results are final.
PlaceNrNameAgeNATTeamTimeTkmMoy.ScrCity
1.5170FOURIER Pierre-Luc37FRA1:24:063:04 19.622ANDRESY
2.5174MAGERMANS Vincent50BEL1:26:233:09 19.103LIMBOURG
3.5159FREDDY Schmetz54BEL1:35:473:29 17.235LONTZEN
4.5119EZINE Aurélien40FRAASL VARREDDES1:40:023:39 16.508EMERAINVILLE
5.5130LESUEUR Arnaud40FRA1:40:023:39 16.509MEAUX
6.5113COUSSEGAL Marc46FRA1:41:003:41 16.3410ANNET SUR MARNE
7.5131AUBRIOT David48FRA1:43:073:45 16.0011CROUY SUR OURCQ
8.5185SOLLAZZZO Fabrice51FRA1:43:113:46 15.9912GOURNAY SUR MARNE
9.5112DECAEN Christophe51FRA1:43:403:47 15.9213LIZY SUR OURCQ
10.5110MATTERNE Ringo36BEL1:43:563:47 15.8814LINTER
11.5123DEROYE Davy42BEL1:43:563:47 15.8815ZOUTLEEUW
12.5142GOBLET Jean-Philippe40BEL1:44:083:48 15.8516SOMZÉE BELGIQUE
13.5114CAVALIER Dominique50FRA1:44:183:48 15.8217NEUILLY PLAISANCE
14.5154MEEUS David40BEL1:44:563:49 15.7218ZUTENDAAL
15.5183VAN GOETHEM Hans45BEL1:45:133:50 15.6819HAMME
16.5190MALFLIET Koen45BEL1:45:163:50 15.6820HAMME
17.40123GIROT Marc34FRA1:46:233:53 15.5122MAROMME LA MAINE
18.5105DUCASTELLE Rudy36FRAROISEL VTT1:46:463:53 15.4623TEMPLEUX LE GUÉRARD
19.5157VAN DER BEETEN Nicolas29BEL1:47:043:54 15.4124AMAY
20.5175PAREYN Jan54BEL1:48:103:56 15.2625VLAMERTINGE
21.5132DEFLESSELLES Gregory37FRA1:48:283:57 15.2126TETEGHEM
22.5107DAMBRE Pierre Antoine39FRA1:52:284:06 14.6728TOURNAI
23.5120WITTEVRONGEL Lukas29BEL1:52:444:06 14.6429LIEVEGEM
24.5106BOUCHER Alexis40FRA1:53:104:07 14.5830MONS EN PEVELE
25.5153CLAEYS Jeroenj35BEL1:54:414:11 14.3931TEMSE
26.5155SEGERS Wim42BEL1:55:254:12 14.3032BEVEREN
27.5156VAN MELE Koen43BEL1:55:264:12 14.3033HAMME (VL.)
28.5176DELEFORTRIE Thibaut33FRA1:57:264:17 14.0534SEQUEDIN
29.5160AVEZ Baptiste42FRA1:57:284:17 14.0535TOURCOING
30.5177BAKKER Rene32NLD1:57:524:18 14.0036ALKMAAR
31.5178VISSER Erik31NLD1:57:524:18 14.0037ALKMAAR
32.5145CHERMEUX Jean Pierre40FRA1:58:104:18 13.9738RAMEGNIES CHIN
33.40133DEWEIRDT Anthony31BEL1:58:374:19 13.9139LOCHRISTI
34.5165CARPENTIER Nicolas34FRA1:59:034:20 13.8640BEAURAINVILLE
35.5187CORMAND Mickael38FRA1:59:514:22 13.7741JUGON LEZS LACS
36.5188CORMAND Mickael38FRA1:59:514:22 13.7742JUGON LEZS LACS
37.5164CARON David33FRA2:00:494:24 13.6643RANG DU FLIERS
38.40130CNUDDE Glenn30BEL2:01:364:26 13.5745GENT
39.5173REMACLE Michel56BEL2:03:004:29 13.4146LES AVINS
40.5172OTTO Pierre46BEL2:03:024:29 13.4147LES AVINS
41.5162HUBERT Martin41BEL2:03:474:31 13.3349DION-VALMONT
42.5161HAILLUS Jean-Charles40FRA2:03:474:31 13.3350DION-VALMONT
43.5108MILLE Norbert32FRA2:05:134:34 13.1851MONTIER EN DER
44.40116HOEFFLER Aurelien31FRA2:05:514:35 13.1152TRÉMERY
45.40132MIALET Christophe45FRA2:06:274:36 13.0553LE CHATELET EN BRIE
46.40115MAITRE Claude68FRA2:10:114:45 12.6755SAINT VIT
47.40117MARTIN Benoit49FRA2:10:124:45 12.6756EVANS
48.5139HENRY Nicolas41BEL2:12:314:50 12.4557NIMY
49.5140VAN CEULEBROECK Geoffrey40BEL2:13:114:51 12.3958MONS
50.40122PETRUCCI Ludovic42BEL2:14:124:53 12.3059MONS
51.5138SUEUR Laurent46FRA2:17:515:01 11.9761BULLY-LES-MINES
52.5152CLAES Tom33BEL2:18:445:03 11.8962LINTER
53.5151DERACHE Nicolas54FRA2:21:035:08 11.7063LOUVIGNIES QUESNOY
54.5124PINOLI Olivier44FRA2:22:385:12 11.5765MARBACHE
55.5125PINOLI Jean-Marie71FRA2:22:395:12 11.5766MARBACHE
56.5116PIERARD Tom42BEL2:23:365:14 11.4967NIVELLES
57.5147SCAILLIEREZ Pierre30FRA2:26:245:20 11.2770ESTAIRES
58.5146DELVALLEE Remi34FRA2:26:255:20 11.2771LYNDE
59.5136DIMITRI Szostak47BEL2:26:415:21 11.2572OOSTDUINKERKE
60.5158PHILIPS Cé36BEL2:26:415:21 11.2573NIEUWPOORT
61.5137DAMIEN Pacco33BEL2:27:255:22 11.1974SINT-IDESBALD
62.40125CLAMAR Cedric45BEL2:29:065:26 11.0775AISCHE EN REFAIL
63.40126CLAMAR Aurelien21BEL2:29:165:26 11.0576AISCHE EN REFAIL
64.40127WATERVAL Tom27BEL2:29:165:26 11.0577LOYERS
65.5186HULET Philippe Roland43BEL2:32:305:33 10.8278ORP-JAUCHE
66.5144PARATE Noël51BEL2:32:415:34 10.8179MELIN
67.5143DEPAS Frederic49BEL2:32:495:34 10.8080MERDORP
68.5122PARSAT Franck45FRA2:34:245:37 10.6981SAINT-SAULVE
69.5121WEISSLAND Edgar22FRA2:34:265:37 10.6982CAMBRAI
70.40121VAN LANDEGHEM Joran25BEL2:39:595:50 10.3183SINT-GILLIS-WAAS
71.40120ROMBAUT Lennart26BEL2:40:005:50 10.3184DE PINTE
72.40134DESCAMPS Arthur25BEL2:40:015:50 10.3185OOSTAKKER
73.40103NYCKEES Wouter25BEL2:40:015:50 10.3186GENTBRUGGE
74.40104VANBESELAERE Lars25BEL2:40:085:50 10.3087GRAND-HALLEUX
75.40102GEERAERT Jean-Michel60FRA2:42:035:54 10.1888CHARENTON-LE-PONT
76.5133DEFLESSELLES Cedric36FRA2:44:325:59 10.0390GHYVELDE
77.5102BUSSIAN Jean-Marie36FRA2:44:546:00 10.0191DUNKERQUE
78.5141AUGUSTIN Christophe38FRA2:45:176:01 9.9892MEAUX
79.40106DARLE Théotime17FRA2:45:226:01 9.9893ST JEAN LES DEUX JUMEAUX
80.40107RETORY Xavier29FRA2:49:196:10 9.7594VILLENOY
DNF40112BARELIER Fabien42FRAASNIÈRES SUR SEINE
DNF5134CARTIER Adrien34FRAROSENDAEL
DNF40128CHRYSTOPHE Cucheval32FRAMANCAS
DNF40110DAUPHIN Thierry56FRAASNIERES SUR SEINE
DNF5109DERUYTTERE Bernard43BELRUDDERVOORDE
DNF40114ERAKOVIC Zoran46FRAARGENTEUIL
DNF5135FEVRIER Enrique39FRACHATEAU-GONTIER
DNF40119HUBENS Jean-Philippe47BELLOUVAIN-LA-NEUVE
DNF40109PAILLET Matthieu34FRAETTERBEEK
DNF40113PASTRE Maxime59FRAMEULERS
DNF5127PATY Thomas26FRAVAUX LE PÉNIL
DNF40108SCHEERS Jerome34BELINCOURT
DNF5181VAN DER VLOEDT Rudy Joseph61BELBLANKENBERGE
DNF: did not finish; DSQ: disqualified; Speed in km/h
Page: [1]